Location: Colorado Springs
(38.8340°N, 104.8210°W)
Time: 00:29:29
(UTC-06:00)

Tiangong 1 - Pass Details

Date: 09 October 2017
Orbit: 292 x 320 km, 42.8° (Epoch: 21 October)

Event Time Altitude Azimuth Distance (km) Brightness Sun altitude
Rises 20:13:26 0° 286° (WNW) 2,034 6.3 -21.1°
Reaches altitude 10° 20:15:32 10° 296° (WNW) 1,199 4.6 -21.5°
Enters shadow 20:16:56 23° 318° (NW) 717 2.9 -21.8°
